Location: Four Corners
(38.2757°N, 122.4608°W)
Time: 00:03:41
(UTC+00:00)

Atlas Centaur 2 - Pass Details

Date: 08 December 2019
Orbit: 459 x 1310 km, 30.4° (Epoch: 17 January)

Event Time Altitude Azimuth Distance (km) Brightness Sun altitude
Rises 02:34:54 0° 267° (W) 3,978 7.2 -20.1°
Reaches altitude 10° 02:37:51 10° 259° (W) 3,117 6.3 -20.7°
Maximum altitude 02:44:52 35° 198° (SSW) 1,953 4.3 -22.0°
Enters shadow 02:52:04 11° 138° (SE) 3,235 4.9 -23.4°
